�������l�o���
Date,Time,MP-1(��Sv/h),MP-2(��Sv/h),MP-3(��Sv/h),MP-4(��Sv/h),MP-5(��Sv/h),MP-6(��Sv/h),MP-7(��Sv/h),MP-8(��Sv/h),����,����(m/s),���J
2020/02/03,00:00,0.697,0.998,0.654,1.247,0.866,0.400,0.701,0.667,�k��,5.5,��
2020/02/03,00:10,0.698,0.999,0.654,1.248,0.868,0.399,0.701,0.667,�k��,3.5,��
2020/02/03,00:20,0.695,0.999,0.652,1.244,0.868,0.399,0.701,0.665,�k��,3.3,��
2020/02/03,00:30,0.695,1.000,0.654,1.244,0.867,0.401,0.701,0.668,�k��,2.3,��
2020/02/03,00:40,0.695,1.000,0.652,1.245,0.867,0.399,0.701,0.668,�k��,2.8,��
2020/02/03,00:50,0.697,1.000,0.656,1.245,0.868,0.401,0.701,0.667,�k��,2.9,��
2020/02/03,01:00,0.697,1.000,0.653,1.244,0.867,0.401,0.701,0.667,�k��,1.7,��
2020/02/03,01:10,0.698,1.001,0.653,1.242,0.866,0.402,0.701,0.667,���k��,2.0,��
2020/02/03,01:20,0.696,0.999,0.651,1.247,0.868,0.401,0.700,0.665,���쐼,1.2,��
2020/02/03,01:30,0.697,1.001,0.654,1.245,0.867,0.400,0.700,0.665,��,0.9,��
2020/02/03,01:40,0.695,1.001,0.653,1.245,0.867,0.400,0.701,0.667,���k��,0.7,��
2020/02/03,01:50,0.696,1.000,0.654,1.245,0.868,0.401,0.701,0.666,-,CALM,��
2020/02/03,02:00,0.694,1.001,0.653,1.245,0.866,0.400,0.700,0.667,-,CALM,��
2020/02/03,02:10,0.698,1.000,0.651,1.245,0.868,0.400,0.700,0.667,-,CALM,��
2020/02/03,02:20,0.695,1.001,0.653,1.243,0.867,0.400,0.700,0.666,��,0.5,��
2020/02/03,02:30,0.697,1.002,0.654,1.246,0.867,0.401,0.701,0.667,-,CALM,��
2020/02/03,02:40,0.697,1.000,0.652,1.247,0.867,0.400,0.701,0.667,�k�k��,0.5,��
2020/02/03,02:50,0.698,1.001,0.653,1.246,0.871,0.400,0.702,0.665,��,0.8,��
2020/02/03,03:00,0.695,1.000,0.654,1.245,0.867,0.402,0.699,0.668,�쐼,1.4,��
2020/02/03,03:10,0.697,0.999,0.653,1.246,0.867,0.399,0.700,0.667,��,0.8,��
2020/02/03,03:20,0.696,1.001,0.653,1.244,0.867,0.399,0.699,0.666,���쐼,1.2,��
2020/02/03,03:30,0.696,1.000,0.654,1.245,0.867,0.399,0.700,0.667,-,CALM,��
2020/02/03,03:40,0.697,0.999,0.655,1.246,0.868,0.402,0.701,0.665,-,CALM,��
2020/02/03,03:50,0.696,0.999,0.652,1.246,0.866,0.402,0.701,0.666,-,CALM,��
2020/02/03,04:00,0.696,0.998,0.653,1.244,0.867,0.400,0.699,0.665,�쐼,0.6,��
2020/02/03,04:10,0.696,0.999,0.653,1.245,0.867,0.399,0.698,0.667,�쐼,1.2,��
2020/02/03,04:20,0.696,0.998,0.653,1.247,0.866,0.401,0.698,0.667,��쐼,0.9,��
2020/02/03,04:30,0.697,1.000,0.653,1.245,0.865,0.399,0.700,0.667,��,0.7,��
2020/02/03,04:40,0.696,1.001,0.653,1.244,0.866,0.401,0.700,0.665,-,CALM,��
2020/02/03,04:50,0.697,0.998,0.653,1.247,0.867,0.399,0.700,0.667,-,CALM,��
2020/02/03,05:00,0.697,1.000,0.654,1.246,0.869,0.400,0.699,0.667,�쐼,0.9,��
2020/02/03,05:10,0.696,0.999,0.653,1.247,0.869,0.400,0.701,0.667,�쐼,2.4,��
2020/02/03,05:20,0.695,0.999,0.653,1.245,0.869,0.400,0.700,0.667,��쐼,3.0,��
2020/02/03,05:30,0.696,0.998,0.653,1.244,0.869,0.400,0.701,0.666,�쐼,2.9,��
2020/02/03,05:40,0.697,1.000,0.652,1.245,0.868,0.402,0.699,0.668,�쐼,3.0,��
2020/02/03,05:50,0.696,0.999,0.653,1.243,0.867,0.401,0.701,0.666,��쐼,2.4,��
2020/02/03,06:00,0.695,0.999,0.651,1.241,0.868,0.401,0.700,0.666,��쐼,3.0,��
2020/02/03,06:10,0.697,1.000,0.654,1.244,0.868,0.400,0.701,0.668,�쐼,2.8,��
2020/02/03,06:20,0.695,0.999,0.652,1.244,0.867,0.400,0.699,0.667,��쐼,3.5,��
2020/02/03,06:30,0.698,0.999,0.652,1.244,0.868,0.399,0.699,0.666,��쐼,3.3,��
2020/02/03,06:40,0.697,0.997,0.651,1.244,0.867,0.399,0.700,0.668,��쐼,3.8,��
2020/02/03,06:50,0.695,0.997,0.652,1.244,0.865,0.399,0.700,0.666,�쐼,3.2,��
2020/02/03,07:00,0.696,0.998,0.652,1.243,0.868,0.401,0.699,0.666,��쐼,3.4,��
2020/02/03,07:10,0.697,1.000,0.652,1.242,0.868,0.400,0.701,0.668,��쐼,3.8,��
2020/02/03,07:20,0.699,0.997,0.653,1.243,0.866,0.399,0.700,0.668,��쐼,3.0,��
2020/02/03,07:30,0.695,0.998,0.651,1.245,0.867,0.401,0.699,0.667,��쐼,3.4,��
2020/02/03,07:40,0.696,0.999,0.652,1.243,0.866,0.401,0.700,0.668,��쐼,3.2,��
2020/02/03,07:50,0.699,0.999,0.652,1.245,0.867,0.399,0.699,0.668,��쐼,2.9,��
2020/02/03,08:00,0.699,1.000,0.654,1.244,0.869,0.400,0.700,0.667,��쐼,3.3,��
2020/02/03,08:10,0.697,0.998,0.652,1.245,0.867,0.401,0.702,0.668,��,4.4,��
2020/02/03,08:20,0.697,0.998,0.653,1.246,0.868,0.400,0.700,0.665,��쐼,3.1,��
2020/02/03,08:30,0.698,0.999,0.648,1.247,0.868,0.399,0.702,0.668,��,3.6,��
2020/02/03,08:40,0.698,0.998,0.651,1.246,0.869,0.402,0.702,0.666,��쐼,3.1,��
2020/02/03,08:50,0.698,0.997,0.650,1.244,0.866,0.401,0.703,0.667,��쐼,3.0,�L
2020/02/03,09:00,0.699,0.996,0.650,1.244,0.870,0.399,0.702,0.669,��,2.0,�L
2020/02/03,09:10,0.698,0.995,0.647,1.244,0.866,0.401,0.703,0.668,��,1.5,��
2020/02/03,09:20,0.700,0.991,0.647,1.246,0.867,0.402,0.703,0.667,��,2.7,�L
2020/02/03,09:30,0.699,0.994,0.648,1.247,0.868,0.401,0.702,0.668,��쓌,1.4,��
2020/02/03,09:40,0.699,0.997,0.651,1.246,0.867,0.402,0.702,0.667,��,0.7,�L
2020/02/03,09:50,0.700,0.997,0.650,1.245,0.869,0.401,0.702,0.668,��,1.4,�L
2020/02/03,10:00,0.699,0.995,0.650,1.246,0.868,0.403,0.703,0.668,��쓌,1.5,��
2020/02/03,10:10,0.701,0.997,0.653,1.248,0.868,0.401,0.702,0.667,��,2.5,��
2020/02/03,10:20,0.701,0.997,0.654,1.247,0.867,0.403,0.703,0.669,��쓌,2.6,��
2020/02/03,10:30,0.701,0.995,0.651,1.246,0.870,0.402,0.702,0.668,��쓌,2.9,��
2020/02/03,10:40,0.700,0.996,0.651,1.245,0.870,0.402,0.703,0.667,�쓌,3.0,��
2020/02/03,10:50,0.702,0.999,0.653,1.246,0.870,0.402,0.701,0.668,�쓌,1.7,��
2020/02/03,11:00,0.700,0.996,0.652,1.245,0.872,0.402,0.702,0.668,�쓌,2.9,��
2020/02/03,11:10,0.701,0.999,0.654,1.247,0.871,0.402,0.700,0.670,��쓌,3.3,��
2020/02/03,11:20,0.700,1.000,0.653,1.247,0.867,0.402,0.701,0.670,��쓌,2.9,��
2020/02/03,11:30,0.701,0.993,0.653,1.244,0.870,0.402,0.700,0.669,��쓌,3.5,��
2020/02/03,11:40,0.702,0.995,0.654,1.248,0.869,0.404,0.700,0.669,��쓌,1.9,��
2020/02/03,11:50,0.702,0.995,0.653,1.244,0.869,0.403,0.701,0.668,��쓌,2.4,��
2020/02/03,12:00,0.702,0.997,0.654,1.247,0.869,0.404,0.701,0.669,��쓌,4.2,��
2020/02/03,12:10,0.704,0.997,0.656,1.246,0.870,0.404,0.701,0.668,��쓌,5.6,��
2020/02/03,12:20,0.702,0.995,0.655,1.247,0.871,0.402,0.701,0.667,��쓌,6.0,��
2020/02/03,12:30,0.704,0.997,0.655,1.247,0.869,0.403,0.702,0.670,��쓌,6.3,��
2020/02/03,12:40,0.704,0.996,0.655,1.248,0.871,0.404,0.702,0.669,��쓌,6.4,��
2020/02/03,12:50,0.704,0.995,0.655,1.248,0.869,0.402,0.702,0.668,��쓌,7.1,��
2020/02/03,13:00,0.703,0.996,0.653,1.247,0.870,0.403,0.703,0.670,��쓌,7.1,��
2020/02/03,13:10,0.703,0.994,0.652,1.245,0.871,0.403,0.701,0.668,��쓌,7.4,��
2020/02/03,13:20,0.703,0.996,0.652,1.249,0.869,0.404,0.702,0.669,��쓌,7.1,��
2020/02/03,13:30,0.704,0.996,0.652,1.248,0.869,0.403,0.703,0.669,��쓌,7.7,��
2020/02/03,13:40,0.705,0.999,0.652,1.248,0.869,0.404,0.702,0.669,��쓌,8.2,��
2020/02/03,13:50,0.703,0.999,0.652,1.250,0.869,0.405,0.702,0.667,��쓌,8.2,��
2020/02/03,14:00,0.704,0.998,0.653,1.246,0.871,0.404,0.701,0.667,��쓌,8.2,��
2020/02/03,14:10,0.704,0.999,0.651,1.249,0.870,0.405,0.702,0.665,��쓌,8.0,��
2020/02/03,14:20,0.704,0.999,0.650,1.250,0.870,0.404,0.704,0.666,��쓌,8.0,��
2020/02/03,14:30,0.701,0.997,0.650,1.248,0.868,0.405,0.704,0.666,��쓌,8.2,��
2020/02/03,14:40,0.704,0.999,0.652,1.249,0.869,0.405,0.703,0.665,��쓌,6.7,��
2020/02/03,14:50,0.703,0.999,0.650,1.248,0.868,0.404,0.702,0.666,��쓌,8.3,��
2020/02/03,15:00,0.704,1.002,0.651,1.248,0.869,0.406,0.704,0.665,��,7.4,��
2020/02/03,15:10,0.704,0.998,0.652,1.247,0.867,0.405,0.706,0.667,��,6.9,��
2020/02/03,15:20,0.702,1.001,0.651,1.250,0.870,0.405,0.705,0.666,��쓌,7.1,��
2020/02/03,15:30,0.701,1.002,0.651,1.249,0.871,0.405,0.705,0.667,��쓌,6.6,��
2020/02/03,15:40,0.702,1.003,0.652,1.248,0.869,0.405,0.704,0.668,��,4.1,��
2020/02/03,15:50,0.702,1.006,0.651,1.247,0.871,0.404,0.706,0.669,��쐼,1.6,��
2020/02/03,16:00,0.704,1.007,0.651,1.248,0.871,0.406,0.703,0.670,�쐼,3.3,��
2020/02/03,16:10,0.703,1.004,0.654,1.248,0.869,0.407,0.704,0.669,��,3.8,��
2020/02/03,16:20,0.704,1.007,0.654,1.246,0.870,0.406,0.704,0.669,��,4.2,��
2020/02/03,16:30,0.704,1.008,0.656,1.247,0.869,0.407,0.704,0.671,���k��,4.0,��
2020/02/03,16:40,0.703,1.007,0.655,1.247,0.870,0.406,0.704,0.670,��,4.5,��
2020/02/03,16:50,0.704,1.009,0.656,1.250,0.869,0.406,0.702,0.669,��,4.1,��
2020/02/03,17:00,0.705,1.008,0.656,1.248,0.870,0.407,0.706,0.672,��,2.4,��
2020/02/03,17:10,0.703,1.007,0.657,1.251,0.872,0.406,0.703,0.671,��,3.8,��
2020/02/03,17:20,0.703,1.008,0.657,1.245,0.872,0.407,0.707,0.668,���쐼,4.7,��
2020/02/03,17:30,0.703,1.005,0.657,1.247,0.873,0.406,0.705,0.670,���쐼,7.7,��
2020/02/03,17:40,0.703,1.007,0.657,1.248,0.873,0.405,0.704,0.670,���쐼,7.4,��
2020/02/03,17:50,0.703,1.006,0.657,1.249,0.873,0.406,0.704,0.669,���쐼,8.6,��
2020/02/03,18:00,0.703,1.007,0.656,1.249,0.874,0.405,0.705,0.669,���쐼,7.4,��
2020/02/03,18:10,0.703,1.006,0.657,1.248,0.873,0.404,0.705,0.669,�쐼,5.5,��
2020/02/03,18:20,0.706,1.006,0.658,1.247,0.873,0.406,0.705,0.668,���쐼,4.6,��
2020/02/03,18:30,0.704,1.007,0.657,1.250,0.872,0.406,0.705,0.667,��,4.9,��
2020/02/03,18:40,0.703,1.006,0.657,1.251,0.873,0.404,0.705,0.668,���쐼,6.1,��
2020/02/03,18:50,0.701,1.007,0.657,1.249,0.872,0.405,0.705,0.669,��,9.9,��
2020/02/03,19:00,0.703,1.005,0.657,1.250,0.873,0.405,0.704,0.669,��,9.9,��
2020/02/03,19:10,0.704,1.004,0.658,1.250,0.874,0.405,0.705,0.670,��,9.4,��
2020/02/03,19:20,0.701,1.006,0.657,1.250,0.872,0.407,0.705,0.669,��,7.4,��
2020/02/03,19:30,0.704,1.004,0.655,1.251,0.874,0.404,0.704,0.668,��,8.9,��
2020/02/03,19:40,0.703,1.004,0.657,1.249,0.872,0.404,0.703,0.668,��,8.0,��
2020/02/03,19:50,0.702,1.004,0.657,1.249,0.873,0.404,0.703,0.670,��,8.3,��
2020/02/03,20:00,0.701,1.006,0.656,1.249,0.873,0.404,0.703,0.669,��,6.0,��
2020/02/03,20:10,0.703,1.005,0.656,1.250,0.873,0.404,0.704,0.670,��,8.2,��
2020/02/03,20:20,0.705,1.004,0.657,1.252,0.875,0.405,0.704,0.669,��,5.0,��
2020/02/03,20:30,0.700,1.004,0.656,1.249,0.873,0.405,0.704,0.669,���k��,4.9,��
2020/02/03,20:40,0.703,1.002,0.658,1.251,0.871,0.404,0.705,0.670,���k��,6.0,��
2020/02/03,20:50,0.700,1.005,0.657,1.251,0.871,0.405,0.705,0.668,��,5.8,��
2020/02/03,21:00,0.702,1.006,0.658,1.249,0.871,0.404,0.706,0.670,��,7.2,��
2020/02/03,21:10,0.702,1.004,0.658,1.249,0.873,0.404,0.705,0.669,��,8.0,��
2020/02/03,21:20,0.703,1.007,0.657,1.250,0.873,0.404,0.705,0.669,��,5.0,��
2020/02/03,21:30,0.704,1.004,0.657,1.248,0.875,0.403,0.705,0.668,���k��,5.3,��
2020/02/03,21:40,0.702,1.005,0.656,1.250,0.873,0.404,0.705,0.669,��,3.8,��
2020/02/03,21:50,0.701,1.006,0.659,1.249,0.871,0.404,0.706,0.669,�k��,3.4,��
2020/02/03,22:00,0.702,1.004,0.655,1.252,0.873,0.403,0.704,0.668,���k��,1.8,��
2020/02/03,22:10,0.702,1.004,0.656,1.250,0.871,0.404,0.705,0.670,���k��,4.7,��
2020/02/03,22:20,0.701,1.003,0.657,1.249,0.873,0.404,0.703,0.667,��,6.4,��
2020/02/03,22:30,0.702,1.004,0.655,1.251,0.873,0.403,0.704,0.668,��,5.8,��
2020/02/03,22:40,0.703,1.002,0.656,1.251,0.873,0.403,0.704,0.669,��,4.7,��
2020/02/03,22:50,0.702,1.004,0.658,1.250,0.874,0.404,0.705,0.668,��,4.7,��
2020/02/03,23:00,0.699,1.005,0.655,1.249,0.871,0.402,0.705,0.670,��,4.4,��
2020/02/03,23:10,0.698,1.004,0.657,1.249,0.873,0.404,0.703,0.668,��,3.8,��
2020/02/03,23:20,0.699,1.003,0.656,1.252,0.873,0.402,0.705,0.669,��,5.2,��
2020/02/03,23:30,0.701,1.004,0.655,1.250,0.873,0.403,0.704,0.669,��,4.7,��
2020/02/03,23:40,0.702,1.004,0.658,1.249,0.873,0.403,0.704,0.669,��,3.0,��
2020/02/03,23:50,0.697,1.005,0.657,1.250,0.871,0.402,0.704,0.668,���쐼,1.7,��
